Location: Csohesd
(46.2500°N, 22.6167°E)
Time: 06:05:23
(UTC+00:00)

Okean-O - Pass Details

Date: 21 October 2021
Orbit: 639 x 640 km, 98.2° (Epoch: 04 December)

Event Time Altitude Azimuth Distance (km) Brightness Sun altitude
Exits shadow 18:29:02 28° 244° (WSW) 1,203 4.3 -31.0°
Maximum altitude 18:29:51 30° 264° (W) 1,151 4.4 -31.1°
Drops below altitude 10° 18:33:46 10° 326° (NW) 2,042 5.8 -31.7°
Sets 18:36:13 0° 337° (NNW) 2,957 6.6 -32.1°
